Location: Chantarel
(45.1638°N, 1.7873°E)
Time: 12:26:20
(UTC+00:00)

Gbstr 26 Del rocket - Pass Details

Date: 03 March 2021
Orbit: 492 x 1264 km, 51.8° (Epoch: 11 April)

Event Time Altitude Azimuth Distance (km) Brightness Sun altitude
Rises 19:53:26 0° 289° (WNW) 2,888 7.9 -23.6°
Reaches altitude 10° 19:55:39 10° 297° (WNW) 2,077 6.8 -24.0°
Maximum altitude 20:00:12 42° 9° (N) 1,081 4.2 -24.7°
Enters shadow 20:01:05 39° 34° (NNE) 1,164 4.2 -24.9°
